Peachtree City, GA

4:25 AM EDT on July 23, 2017 (GMT -0400)
Peachtree City-Falcon

Weather History for KFFC - February, 2013

Change the Weather History Date:

Wednesday, February 27, 2013

  Actual Average Record
Temperature  
Mean Temperature 52 °F 49 °F  
Max Temperature 61 °F 62 °F 75 °F (2011)
Min Temperature 42 °F 37 °F 23 °F (2002)
Degree Days  
Heating Degree Days 14 16  
Month to date heating degree days 498  
Since 1 July heating degree days 2367  
Cooling Degree Days 0 0  
Month to date cooling degree days 0  
Year to date cooling degree days 0  
Growing Degree Days 2 (Base 50)    
Moisture  
Dew Point 32 °F    
Average Humidity 53    
Maximum Humidity 67    
Minimum Humidity 32    
Precipitation  
Precipitation 0.00 in 0.17 in 0.94 in (2009)
Month to date precipitation 4.72  
Year to date precipitation 8.92  
Snow  
Snow 0.00 in - - ()
Month to date snowfall  
Since 1 July snowfall  
Snow Depth -    
Sea Level Pressure  
Sea Level Pressure 29.88 in    
Wind  
Wind Speed 8 mph (West)    
Max Wind Speed 13 mph    
Max Gust Speed 24 mph    
Visibility 10 miles    
Events      
T = Trace of Precipitation, MM = Missing Value Source: NWS Daily Summary

Daily Weather History Graph

Daily Weather History Graph

Search for Another Location

Airport or City:

Trip Planner

Search our weather history database for the weather conditions in past years. The results will help you decide how hot, cold, wet, or windy it might be!

Date:

Astronomy

Feb. 27, 2013 Rise Set
Actual Time 7:08 AM EST 6:33 PM EST
Civil Twilight 6:43 AM EST 6:58 PM EST
Nautical Twilight 6:14 AM EST 7:27 PM EST
Astronomical Twilight 5:46 AM EST 7:56 PM EST
Moon 8:43 PM EST (2/27) 7:51 AM EST (2/27)
Length of Visible Light 12h 15m
Length of Day
11h 25m
Waning Gibbous, 96% of the Moon is Illuminated
Feb 27
Waning Gibbous
Mar 4
Last Quarter
Mar 11
New
Mar 19
First Quarter
Mar 27
Full

Hourly Weather History & Observations

Time (EST) Temp. Windchill Dew Point Humidity Pressure Visibility Wind Dir Wind Speed Gust Speed Precip Events Conditions
12:53 AM 45.0 °F 40.1 °F 33.1 °F 63% 29.83 in 10.0 mi West 9.2 mph - N/A   Overcast
1:53 AM 45.0 °F 39.3 °F 30.9 °F 58% 29.84 in 10.0 mi West 11.5 mph 17.3 mph N/A   Overcast
2:53 AM 44.1 °F 39.5 °F 30.9 °F 60% 29.83 in 10.0 mi West 8.1 mph - N/A   Overcast
3:53 AM 44.1 °F 39.5 °F 30.0 °F 58% 29.84 in 10.0 mi West 8.1 mph - N/A   Overcast
4:53 AM 44.1 °F 39.5 °F 32.0 °F 63% 29.86 in 10.0 mi WNW 8.1 mph 17.3 mph N/A   Overcast
5:53 AM 44.1 °F 41.5 °F 32.0 °F 63% 29.87 in 10.0 mi West 4.6 mph - N/A   Overcast
6:53 AM 42.1 °F 40.2 °F 32.0 °F 67% 29.88 in 10.0 mi Variable 3.5 mph - N/A   Mostly Cloudy
7:06 AM 42.8 °F 39.3 °F 32.0 °F 66% 29.86 in 10.0 mi West 5.8 mph - N/A   Mostly Cloudy
7:53 AM 42.1 °F 39.2 °F 32.0 °F 67% 29.90 in 10.0 mi West 4.6 mph - N/A   Mostly Cloudy
8:53 AM 44.1 °F 40.1 °F 32.0 °F 63% 29.92 in 9.0 mi WNW 6.9 mph 16.1 mph N/A   Mostly Cloudy
9:06 AM 44.6 °F 39.7 °F 33.8 °F 66% 29.91 in 9.0 mi West 9.2 mph - N/A   Scattered Clouds
9:53 AM 46.9 °F - 32.0 °F 56% 29.93 in 10.0 mi WNW 10.4 mph 20.7 mph N/A   Clear
10:53 AM 48.0 °F - 33.1 °F 56% 29.92 in 10.0 mi WNW 5.8 mph - N/A   Clear
11:53 AM 52.0 °F - 33.1 °F 49% 29.92 in 10.0 mi Variable 5.8 mph - N/A   Clear
12:53 PM 54.0 °F - 33.1 °F 45% 29.91 in 10.0 mi West 10.4 mph 18.4 mph N/A   Clear
1:53 PM 57.0 °F - 33.1 °F 40% 29.88 in 10.0 mi WNW 10.4 mph 19.6 mph N/A   Clear
2:53 PM 60.1 °F - 32.0 °F 35% 29.85 in 10.0 mi West 11.5 mph 24.2 mph N/A   Clear
3:53 PM 61.0 °F - 32.0 °F 34% 29.85 in 10.0 mi West 9.2 mph 18.4 mph N/A   Clear
4:53 PM 60.1 °F - 30.0 °F 32% 29.84 in 10.0 mi SW 11.5 mph 18.4 mph N/A   Clear
5:53 PM 59.0 °F - 30.0 °F 33% 29.85 in 10.0 mi WSW 12.7 mph 18.4 mph N/A   Clear
6:53 PM 55.0 °F - 32.0 °F 42% 29.86 in 10.0 mi WSW 4.6 mph - N/A   Clear
7:53 PM 50.0 °F - 33.1 °F 52% 29.88 in 10.0 mi Calm Calm - N/A   Clear
8:53 PM 52.0 °F - 32.0 °F 47% 29.89 in 10.0 mi West 6.9 mph - N/A   Mostly Cloudy
9:53 PM 51.1 °F - 32.0 °F 48% 29.89 in 10.0 mi West 4.6 mph - N/A   Clear
10:53 PM 46.9 °F - 33.1 °F 59% 29.89 in 10.0 mi Calm Calm - N/A   Partly Cloudy
11:53 PM 46.9 °F - 33.1 °F 59% 29.90 in 10.0 mi West 6.9 mph - N/A   Mostly Cloudy